Weather History for Buffalo, WY

Change the Weather History Date:

Monday, December 24, 2012

  Actual Average Record
Temperature  
Mean Temperature 13 °F 26 °F  
Max Temperature 25 °F 37 °F 52 °F (1999)
Min Temperature 1 °F 15 °F -6 °F (1998)
Degree Days  
Heating Degree Days 52 39  
Month to date heating degree days 822 944  
Since 1 July heating degree days 2379 2778  
Cooling Degree Days 0 0  
Month to date cooling degree days 0 0  
Year to date cooling degree days 795 492  
Moisture  
Dew Point 6 °F    
Average Humidity 74    
Maximum Humidity 88    
Minimum Humidity 60    
Precipitation  
Precipitation T in 0.01 in 0.04 in (2007)
Month to date precipitation 0.01 0.32  
Year to date precipitation 8.83 13.37  
Sea Level Pressure  
Sea Level Pressure 30.01 in    
Wind  
Wind Speed 11 mph (NNW)    
Max Wind Speed 23 mph    
Max Gust Speed 35 mph    
Visibility 5 miles    
Events Snow    
T = Trace of Precipitation, MM = Missing Value Source: NWS Daily Summary

Daily Weather History Graph

Daily Weather History Graph

Search for Another Location

Airport:

Trip Planner

Search our weather history database for the weather conditions in past years. The results will help you decide how hot, cold, wet, or windy it might be!

Date:

Astronomy

Dec. 24, 2012 Rise Set
Actual Time 7:41 AM MST 4:32 PM MST
Civil Twilight 7:07 AM MST 5:05 PM MST
Nautical Twilight 6:31 AM MST 5:42 PM MST
Astronomical Twilight 5:55 AM MST 6:17 PM MST
Moon 2:04 PM MST (12/24) 4:19 AM MST (12/24)
Length of Visible Light 9h 57m
Length of Day
8h 50m
Waxing Gibbous, 89% of the Moon is Illuminated
Dec 24
Waxing Gibbous
Dec 28
Full
Jan 4
Last Quarter
Jan 11
New
Jan 18
First Quarter

Hourly Weather History & Observations

Time (MST) Temp. Windchill Dew Point Humidity Pressure Visibility Wind Dir Wind Speed Gust Speed Precip Events Conditions
12:53 AM 24.1 °F 19.7 °F 14.0 °F 65% 29.88 in 10.0 mi South 3.5 mph - N/A   Partly Cloudy
1:53 AM 24.1 °F 18.2 °F 12.9 °F 62% 29.87 in 10.0 mi South 4.6 mph - N/A   Clear
2:53 AM 19.9 °F - 12.0 °F 71% 29.88 in 10.0 mi Calm Calm - N/A   Mostly Cloudy
3:53 AM 19.9 °F - 10.9 °F 68% 29.88 in 10.0 mi Calm Calm - N/A   Scattered Clouds
4:53 AM 21.0 °F - 10.9 °F 65% 29.87 in 10.0 mi Calm Calm - N/A   Clear
5:53 AM 19.0 °F - 12.0 °F 74% 29.90 in 10.0 mi Calm Calm - N/A   Mostly Cloudy
6:53 AM 16.0 °F 10.4 °F 10.0 °F 77% 29.90 in 10.0 mi North 3.5 mph - N/A   Scattered Clouds
7:53 AM 16.0 °F 7.4 °F 10.9 °F 81% 29.91 in 10.0 mi NNW 5.8 mph - N/A   Scattered Clouds
8:53 AM 21.0 °F 14.6 °F 15.1 °F 78% 29.93 in 10.0 mi NNW 4.6 mph - N/A   Clear
9:53 AM 21.9 °F 11.7 °F 16.0 °F 78% 29.95 in 10.0 mi North 9.2 mph - N/A   Mostly Cloudy
10:53 AM 21.0 °F 8.6 °F 15.1 °F 78% 29.96 in 10.0 mi NNW 12.7 mph - N/A   Clear
11:22 AM 19.4 °F 6.6 °F 14.0 °F 80% 29.83 in 10.0 mi NNW 12.7 mph - N/A   Partly Cloudy
11:44 AM 19.4 °F 4.5 °F 15.8 °F 86% 29.83 in 10.0 mi North 17.3 mph 23.0 mph N/A   Mostly Cloudy
11:53 AM 19.0 °F 4.5 °F 15.1 °F 85% 29.96 in 10.0 mi North 16.1 mph 24.2 mph N/A   Mostly Cloudy
12:53 PM 18.0 °F 4.2 °F 12.0 °F 78% 29.97 in 10.0 mi NNW 13.8 mph 23.0 mph N/A   Overcast
1:53 PM 14.0 °F -0.8 °F 10.9 °F 88% 29.99 in 8.0 mi NW 13.8 mph 26.5 mph N/A   Overcast
2:28 PM 12.2 °F -4.3 °F 8.6 °F 85% 29.86 in 2.0 mi NNW 16.1 mph 25.3 mph 0.00 in Snow Light Snow
2:50 PM 12.2 °F -4.3 °F 8.6 °F 85% 29.88 in 1.5 mi NNW 16.1 mph 26.5 mph 0.00 in Snow Light Snow
2:53 PM 12.9 °F -2.8 °F 9.0 °F 84% 30.04 in 1.2 mi North 15.0 mph 26.5 mph 0.00 in Snow Light Snow
3:37 PM 10.4 °F -7.2 °F 6.8 °F 85% 29.90 in 1.0 mi NNW 17.3 mph 25.3 mph 0.00 in Snow Light Snow
3:53 PM 10.0 °F -8.6 °F 6.1 °F 84% 30.09 in 1.2 mi NNW 19.6 mph 26.5 mph 0.00 in Snow Light Snow
4:25 PM 8.6 °F -11.0 °F 5.0 °F 85% 29.92 in 1.0 mi NNW 20.7 mph 25.3 mph 0.00 in Snow Light Snow
4:37 PM 8.6 °F -11.0 °F 3.2 °F 79% 29.93 in 1.2 mi NNW 20.7 mph 25.3 mph 0.00 in Snow Light Snow
4:48 PM 8.6 °F -11.4 °F 3.2 °F 79% 29.93 in 2.5 mi NNW 21.9 mph 26.5 mph 0.00 in Snow Light Snow
4:53 PM 9.0 °F -11.0 °F 3.9 °F 80% 30.12 in 2.5 mi NNW 21.9 mph 34.5 mph 0.00 in Snow Light Snow
5:14 PM 8.6 °F -11.0 °F 3.2 °F 79% 29.95 in 1.8 mi NNW 20.7 mph 26.5 mph 0.00 in Snow Light Snow
5:53 PM 8.1 °F -11.2 °F 3.0 °F 80% 30.17 in 1.5 mi NNW 19.6 mph - 0.00 in Snow Light Snow
6:16 PM 6.8 °F -11.8 °F 1.4 °F 79% 29.99 in 1.8 mi NNW 17.3 mph 25.3 mph 0.00 in Snow Light Snow
6:28 PM 6.8 °F -11.3 °F 1.4 °F 79% 29.99 in 2.5 mi NNW 16.1 mph 26.5 mph 0.00 in Snow Light Snow
6:39 PM 6.8 °F -12.9 °F 1.4 °F 79% 30.00 in 3.0 mi NNW 19.6 mph 26.5 mph 0.00 in Snow Light Snow
6:46 PM 6.8 °F -12.9 °F 1.4 °F 79% 30.00 in 2.5 mi NNW 19.6 mph 25.3 mph 0.00 in Snow Light Snow
6:53 PM 6.1 °F -13.3 °F 1.9 °F 83% 30.22 in 2.0 mi NNW 18.4 mph 25.3 mph 0.00 in Snow Light Snow
7:00 PM 6.8 °F -11.8 °F 1.4 °F 79% 30.01 in 1.8 mi NNW 17.3 mph 25.3 mph 0.00 in Snow Light Snow
7:29 PM 5.0 °F -15.7 °F 1.4 °F 85% 30.02 in 1.2 mi NNW 20.7 mph 25.3 mph 0.00 in Snow Light Snow
7:53 PM 5.0 °F -15.2 °F -0.0 °F 80% 30.24 in 1.5 mi NNW 19.6 mph 26.5 mph 0.00 in Snow Light Snow
8:11 PM 3.2 °F -15.9 °F -0.4 °F 85% 30.04 in 2.0 mi NNW 16.1 mph 25.3 mph 0.00 in Snow Light Snow
8:53 PM 3.9 °F -16.1 °F -0.9 °F 80% 30.25 in 2.0 mi NNW 18.4 mph 26.5 mph 0.00 in Snow Light Snow
9:26 PM 3.2 °F -16.5 °F -0.4 °F 85% 30.06 in 1.5 mi NNW 17.3 mph 26.5 mph 0.00 in Snow Light Snow
9:53 PM 3.0 °F -17.3 °F -2.0 °F 80% 30.27 in 1.5 mi NNW 18.4 mph 28.8 mph 0.00 in Snow Light Snow
10:14 PM 3.2 °F -16.5 °F -2.2 °F 78% 30.08 in 1.5 mi NNW 17.3 mph 25.3 mph 0.00 in Snow Light Snow
10:32 PM 1.4 °F -21.0 °F -2.2 °F 85% 30.09 in 2.0 mi NNW 21.9 mph 31.1 mph 0.00 in Snow Light Snow
10:53 PM 1.9 °F -18.1 °F -2.9 °F 80% 30.31 in 2.0 mi NNW 17.3 mph 26.5 mph 0.00 in Snow Light Snow
11:18 PM 1.4 °F -19.9 °F -2.2 °F 85% 30.11 in 2.0 mi NNW 19.6 mph 25.3 mph 0.00 in Snow Light Snow
11:40 PM 1.4 °F -19.4 °F -2.2 °F 85% 30.12 in 2.5 mi NNW 18.4 mph 25.3 mph 0.00 in Snow Light Snow
11:48 PM 1.4 °F -16.9 °F -2.2 °F 85% 30.12 in 3.0 mi NNW 13.8 mph 25.3 mph 0.00 in Snow Light Snow
11:53 PM 1.9 °F -16.9 °F -2.9 °F 80% 30.34 in 3.0 mi NNW 15.0 mph 26.5 mph 0.00 in Snow Light Snow